Hourly Data Report for September 06, 2017

All times are specified in Local Standard Time (LST). Add 1 hour to adjust for Daylight Saving Time where and when it is observed.

FREDERICTON
NEW BRUNSWICK

45°52'08.000" N
66°32'14.000" W
20.70 m
8101505
71700
YFC

Related Data

No related data is available for this station

Download Data

Hourly Data (September 2017)
Hourly Data Report for September 6, 2017
Temp Definition
°C
Dew Point Temp Definition
°C
Rel Hum Definition
%
Wind Dir Definition
10's deg

Wind Spd Definition
km/h
Visibility Definition
km
Stn Press Definition
kPa
Hmdx Definition


Wind Chill Definition


Weather Definition


TIME
00:00 Legend Double Dagger 18.3 17.2 93 18 21 16.1 100.77     LegendNANA
01:00 Legend Double Dagger 18.3 17.0 92 17 24 16.1 100.77     LegendNANA
02:00 Legend Double Dagger 18.8 17.0 89 17 18 16.1 100.76     LegendNANA
03:00 Legend Double Dagger 18.7 17.1 90 19 22 14.5 100.77     LegendNANA
04:00 Legend Double Dagger 18.6 17.1 91 19 13 12.9 100.85     LegendNANA
05:00 Legend Double Dagger 18.6 17.0 90 20 15 12.9 100.92     LegendNANA
06:00 Legend Double Dagger 18.0 17.0 94 18 11 4.0 101.01     Fog
07:00 Legend Double Dagger 18.0 17.1 94 18 15 4.8 101.06     Fog
08:00 Legend Double Dagger 18.7 17.1 90 17 15 11.3 101.09     LegendNANA
09:00 Legend Double Dagger 18.3 17.3 94 17 11 2.8 101.14     Fog
10:00 Legend Double Dagger 19.3 17.4 89 18 5 16.1 101.17     LegendNANA
11:00 Legend Double Dagger 20.5 18.5 88 16 15 8.1 101.21 27   Fog
12:00 Legend Double Dagger 19.7 18.4 92 18 9 16.1 101.19     LegendNANA
13:00 Legend Double Dagger 21.1 18.2 83 17 17 16.1 101.17 27   LegendNANA
14:00 Legend Double Dagger 21.5 18.6 83 18 13 16.1 101.13 28   LegendNANA
15:00 Legend Double Dagger 21.5 18.7 84 17 9 11.3 101.14 28   LegendNANA
16:00 Legend Double Dagger 19.2 18.2 94 18 17 4.0 101.18     Thunderstorms,Heavy Rain,Fog
17:00 Legend Double Dagger 18.5 17.9 96 14 13 11.3 101.10     Thunderstorms,Moderate Rain
18:00 Legend Double Dagger 18.7 17.9 95 17 18 16.1 101.17     LegendNANA
19:00 Legend Double Dagger 18.7 17.9 95 17 11 16.1 101.15     LegendNANA
20:00 Legend Double Dagger 18.7 17.9 95 17 21 16.1 101.24     Rain
21:00 Legend Double Dagger 18.7 18.1 96 15 13 16.1 101.18     Rain
22:00 Legend Double Dagger 18.7 18.1 96 17 5 16.1 101.18     Rain
23:00 Legend Double Dagger 18.7 17.9 95 17 13 16.1 101.14     LegendNANA

Notes on Data Quality.

Legend

  • E = Estimated
  • M = Missing
  • NA = Not Available
  • ‡ = Partner data that is not subject to review by the National Climate Archives
Date modified: